This is the latest recevied weather packets stored in our database for station/object KD1KE. If no packets are shown the sender has not sent any weather packets the latest 1 day(s).
| Time | Temp. | Humidity | Pressure | Rain* | Wind** | Luminosity | Snow |
|---|---|---|---|---|---|---|---|
| 1778024021 | 17.22° C | 68% | 1006.4 hPa | 0 mm | 0.45 m/s, 217° | - | - |
| 1778023932 | 17.22° C | 68% | 1006.4 hPa | 0 mm | 0.45 m/s, 210° | - | - |
| 1778023480 | 17.22° C | 68% | 1006.3 hPa | 0 mm | 0.45 m/s, 168° | - | - |
| 1778023272 | 17.22° C | 68% | 1006.7 hPa | 0 mm | 0.89 m/s, 173° | - | - |
| 1778022941 | 17.22° C | 68% | 1006.1 hPa | 0 mm | 0.89 m/s, 167° | - | - |
| 1778022612 | 17.22° C | 67% | 1006.5 hPa | 0 mm | 0.45 m/s, 223° | - | - |
| 1778022402 | 17.22° C | 66% | 1005.1 hPa | 0 mm | 0.89 m/s, 232° | - | - |
| 1778021951 | 17.78° C | 66% | 1004.1 hPa | 0 mm | 1.34 m/s, 216° | - | - |
| 1778021862 | 17.78° C | 66% | 1004.1 hPa | 0 mm | 1.34 m/s, 222° | - | - |
| 1778021322 | 17.78° C | 64% | 1003.9 hPa | 0 mm | 1.34 m/s, 233° | - | - |
| 1778021291 | 17.78° C | 64% | 1003.9 hPa | 0 mm | 1.34 m/s, 233° | - | - |
| 1778020780 | 18.33° C | 64% | 1003.8 hPa | 0 mm | 1.34 m/s, 252° | - | - |
| 1778020631 | 18.33° C | 64% | 1003.7 hPa | 0 mm | 1.34 m/s, 251° | - | - |
| 1778020240 | 18.33° C | 63% | 1003.6 hPa | 0 mm | 1.34 m/s, 232° | - | - |
| 1778019972 | 18.33° C | 63% | 1003.5 hPa | 0 mm | 1.34 m/s, 240° | - | - |
| 1778019701 | 18.89° C | 63% | 1003.4 hPa | 0 mm | 1.79 m/s, 253° | - | - |
| 1778019311 | 18.89° C | 62% | 1003.4 hPa | 0 mm | 1.79 m/s, 248° | - | - |
| 1778019160 | 18.89° C | 62% | 1003.4 hPa | 0 mm | 1.34 m/s, 236° | - | - |
| 1778018652 | 18.89° C | 62% | 1003.3 hPa | 0 mm | 1.34 m/s, 212° | - | - |
| 1778018621 | 18.89° C | 62% | 1003.3 hPa | 0 mm | 1.79 m/s, 219° | - | - |
| 1778018079 | 19.44° C | 61% | 1003.3 hPa | 0 mm | 1.79 m/s, 235° | - | - |
| 1778017991 | 19.44° C | 61% | 1003.3 hPa | 0 mm | 1.79 m/s, 237° | - | - |
| 1778017539 | 20° C | 60% | 1003.3 hPa | 0 mm | 1.79 m/s, 245° | - | - |
| 1778017332 | 20° C | 60% | 1003.2 hPa | 0 mm | 1.79 m/s, 240° | - | - |
| 1778016998 | 20° C | 60% | 1003.1 hPa | 0 mm | 1.79 m/s, 237° | - | - |
* Rain latest hour (hover to see other rain measurements)
** Current wind speed in m/s (hover to see current wind gust speed)